Date String (YYYY-MM-DD hh:mm:ss) UTC,Instrument flags,Ambient pressure (hPa),Sample flow (lpm),Bypass flow (lpm),Sample temperature (°C),Ambient temperature (°C),ASC tube jacket temperature (°C),LED temperature (°C),Box temperature (°C),Sample RH (%),Span deviation,Mass concentration (μg/m³),Mass concentration (μg/m³),Mass concentration (μg/m³)
DateTimeUTC,F1_M11,P_M11,Q1_M11,Q2_M11,T1_M11,T2_M11,T3_M11,T4_M11,T5_M11,U1_M11,ZSPAN_M11,X0_M11,X2_M11,X1_M11
2022-06-20 06:00:00,,0823.1,5.00,0.00,29.5,28.6,00.0,38.3,31.5,18.4,0000.0,0006.02,0003.19,0002.25
2022-06-20 06:01:00,,0823.0,5.00,0.00,29.6,28.6,00.0,38.3,31.5,18.4,0000.0,0006.10,0003.20,0002.25
2022-06-20 06:02:00,,0823.0,5.01,0.00,29.6,28.7,00.0,38.3,31.6,18.4,0000.0,0006.06,0003.18,0002.25
2022-06-20 06:03:00,,0823.1,5.00,0.00,29.6,28.7,00.0,38.4,31.6,18.3,0000.0,0006.14,0003.13,0002.25
2022-06-20 06:04:00,,0823.1,5.00,0.00,29.6,28.5,00.0,38.4,31.5,18.3,0000.0,0006.10,0003.09,0002.26
2022-06-20 06:05:00,,0823.1,5.01,0.00,29.6,27.7,00.0,38.3,31.3,18.3,0000.0,0005.99,0003.06,0002.25
2022-06-20 06:06:00,,0823.1,5.01,0.00,29.5,27.4,00.0,38.2,31.3,18.3,0000.0,0005.72,0003.04,0002.25
2022-06-20 06:07:00,,0823.1,5.00,0.00,29.5,27.3,00.0,38.2,31.2,18.3,0000.0,0005.78,0003.04,0002.25
2022-06-20 06:08:00,,0823.1,5.00,0.00,29.4,27.4,00.0,38.2,31.2,18.4,0000.0,0005.88,0003.04,0002.27
2022-06-20 06:09:00,,0823.1,5.00,0.00,29.4,27.5,00.0,38.2,31.2,18.4,0000.0,0005.80,0003.01,0002.26
2022-06-20 06:10:00,,0823.1,5.01,0.00,29.4,27.7,00.0,38.2,31.2,18.4,0000.0,0005.48,0002.98,0002.25
2022-06-20 06:11:00,,0823.1,5.00,0.00,29.4,27.8,00.0,38.2,31.3,18.4,0000.0,0005.24,0003.02,0002.25
2022-06-20 06:12:00,,0823.1,5.00,0.00,29.4,27.9,00.0,38.2,31.3,18.4,0000.0,0005.82,0002.97,0002.23
2022-06-20 06:13:00,,0823.1,5.00,0.00,29.4,28.1,00.0,38.2,31.3,18.4,0000.0,0006.21,0002.99,0002.23
2022-06-20 06:14:00,,0823.1,5.00,0.00,29.4,28.2,00.0,38.2,31.3,18.4,0000.0,0005.90,0002.98,0002.21
2022-06-20 06:15:00,,0823.1,5.00,0.00,29.4,28.3,00.0,38.3,31.4,18.4,0000.0,0005.88,0003.01,0002.20
2022-06-20 06:16:00,,0823.1,5.00,0.00,29.5,28.3,00.0,38.3,31.4,18.4,0000.0,0005.98,0003.02,0002.19
2022-06-20 06:17:00,,0823.1,5.00,0.00,29.5,28.4,00.0,38.3,31.4,18.4,0000.0,0006.07,0003.01,0002.18
2022-06-20 06:18:00,,0823.1,5.01,0.00,29.5,28.5,00.0,38.3,31.4,18.3,0000.0,0005.95,0002.98,0002.16
2022-06-20 06:19:00,,0823.1,5.00,0.00,29.5,28.5,00.0,38.3,31.5,18.3,0000.0,0005.86,0002.97,0002.14
2022-06-20 06:20:00,,0823.2,5.00,0.00,29.5,28.6,00.0,38.3,31.5,18.3,0000.0,0005.82,0002.95,0002.13
2022-06-20 06:21:00,,0823.1,5.00,0.00,29.6,28.6,00.0,38.3,31.5,18.3,0000.0,0005.61,0002.89,0002.13
2022-06-20 06:22:00,,0823.1,5.00,0.00,29.6,28.7,00.0,38.4,31.5,18.2,0000.0,0005.56,0002.86,0002.12
2022-06-20 06:23:00,,0823.1,5.00,0.00,29.6,28.7,00.0,38.4,31.6,18.2,0000.0,0004.82,0002.84,0002.11
2022-06-20 06:24:00,,0823.1,5.01,0.00,29.6,28.8,00.0,38.4,31.6,18.1,0000.0,0004.31,0002.76,0002.10
2022-06-20 06:25:00,,0823.1,4.99,0.00,29.7,28.7,00.0,38.4,31.6,18.1,0000.0,0004.60,0002.77,0002.11
2022-06-20 06:26:00,,0823.1,5.00,0.00,29.6,27.9,00.0,38.3,31.4,18.1,0000.0,0004.61,0002.76,0002.10
2022-06-20 06:27:00,,0823.1,5.00,0.00,29.6,27.4,00.0,38.3,31.3,18.1,0000.0,0004.50,0002.74,0002.10
2022-06-20 06:28:00,,0823.1,5.00,0.00,29.5,27.3,00.0,38.3,31.2,18.2,0000.0,0004.39,0002.75,0002.11
2022-06-20 06:29:00,,0823.0,5.00,0.00,29.5,27.4,00.0,38.3,31.2,18.2,0000.0,0004.52,0002.79,0002.12
2022-06-20 06:30:00,,0823.1,5.00,0.00,29.4,27.5,00.0,38.3,31.2,18.2,0000.0,0004.63,0002.83,0002.11
2022-06-20 06:31:00,,0823.0,5.01,0.00,29.4,27.6,00.0,38.3,31.2,18.1,0000.0,0004.90,0002.93,0002.12
2022-06-20 06:32:00,,0823.1,5.00,0.00,29.4,27.8,00.0,38.3,31.2,18.1,0000.0,0005.13,0003.00,0002.12
2022-06-20 06:33:00,,0823.0,5.00,0.00,29.4,27.9,00.0,38.3,31.3,18.0,0000.0,0005.47,0003.11,0002.13
2022-06-20 06:34:00,,0823.1,5.01,0.00,29.4,28.0,00.0,38.3,31.3,18.0,0000.0,0005.71,0003.16,0002.14
2022-06-20 06:35:00,,0823.1,5.00,0.00,29.4,28.1,00.0,38.3,31.3,18.0,0000.0,0007.00,0003.21,0002.16
2022-06-20 06:36:00,,0823.1,5.00,0.00,29.5,28.2,00.0,38.3,31.3,18.0,0000.0,0007.03,0003.21,0002.17
2022-06-20 06:37:00,,0823.1,5.00,0.00,29.5,28.3,00.0,38.3,31.4,18.0,0000.0,0007.16,0003.23,0002.19
2022-06-20 06:38:00,,0823.2,5.00,0.00,29.5,28.4,00.0,38.3,31.4,18.0,0000.0,0007.33,0003.25,0002.19
2022-06-20 06:39:00,,0823.3,4.99,0.00,29.5,28.5,00.0,38.3,31.4,18.0,0000.0,0007.75,0003.27,0002.19
2022-06-20 06:40:00,,0823.4,5.00,0.00,29.5,28.5,00.0,38.3,31.5,18.0,0000.0,0008.11,0003.29,0002.19
2022-06-20 06:41:00,,0823.4,4.99,0.00,29.6,28.6,00.0,38.3,31.5,18.1,0000.0,0008.19,0003.32,0002.21
2022-06-20 06:42:00,,0823.3,5.00,0.00,29.6,28.6,00.0,38.3,31.5,18.0,0000.0,0008.24,0003.34,0002.23
2022-06-20 06:43:00,,0823.4,4.99,0.00,29.6,28.7,00.0,38.4,31.6,18.0,0000.0,0008.30,0003.37,0002.23
2022-06-20 06:44:00,,0823.3,5.01,0.00,29.6,28.7,00.0,38.4,31.6,18.0,0000.0,0008.36,0003.39,0002.24
2022-06-20 06:45:00,,0823.3,5.00,0.00,29.7,28.8,00.0,38.4,31.6,17.9,0000.0,0008.35,0003.37,0002.25
2022-06-20 06:46:00,,0823.3,5.00,0.00,29.7,28.8,00.0,38.4,31.6,17.9,0000.0,0007.84,0003.39,0002.25
2022-06-20 06:47:00,,0823.3,5.01,0.00,29.7,28.3,00.0,38.4,31.5,17.8,0000.0,0007.78,0003.43,0002.26
2022-06-20 06:48:00,,0823.3,5.00,0.00,29.6,27.5,00.0,38.3,31.4,17.9,0000.0,0007.74,0003.45,0002.26
2022-06-20 06:49:00,,0823.3,4.99,0.00,29.6,27.4,00.0,38.3,31.3,17.9,0000.0,0008.00,0003.46,0002.28
2022-06-20 06:50:00,,0823.3,5.01,0.00,29.5,27.4,00.0,38.3,31.2,18.0,0000.0,0007.84,0003.46,0002.28
2022-06-20 06:51:00,,0823.3,5.01,0.00,29.5,27.5,00.0,38.3,31.2,18.0,0000.0,0007.54,0003.46,0002.30
2022-06-20 06:52:00,,0823.4,4.99,0.00,29.4,27.6,00.0,38.3,31.2,18.0,0000.0,0007.54,0003.44,0002.28
2022-06-20 06:53:00,,0823.4,5.00,0.00,29.4,27.8,00.0,38.3,31.3,18.0,0000.0,0007.35,0003.37,0002.25
2022-06-20 06:54:00,,0823.4,4.99,0.00,29.4,27.9,00.0,38.3,31.3,18.0,0000.0,0007.24,0003.33,0002.25
2022-06-20 06:55:00,,0823.5,5.01,0.00,29.4,28.0,00.0,38.3,31.3,17.9,0000.0,0007.11,0003.30,0002.25
2022-06-20 06:56:00,,0823.4,5.00,0.00,29.5,28.2,00.0,38.3,31.3,17.9,0000.0,0007.34,0003.30,0002.26
2022-06-20 06:57:00,,0823.4,5.00,0.00,29.5,28.3,00.0,38.3,31.4,17.9,0000.0,0007.90,0003.31,0002.26
2022-06-20 06:58:00,,0823.4,4.99,0.00,29.5,28.3,00.0,38.3,31.4,17.9,0000.0,0007.87,0003.28,0002.25
2022-06-20 06:59:00,,0823.4,4.99,0.00,29.5,28.4,00.0,38.3,31.4,17.8,0000.0,0007.84,0003.25,0002.24
